EZY18WD EGPH-EGBB

Flight info

Callsign EZY18WD
Flight time 0h 51m
Altitude 27000
Route GOSAM P600 FENIK L612 NAVSO DCT AKOMU DCT VAMEB UL612 CROFT
Aircraft A320/M-SDE2E3FGHIJ1RWXYZ/LB1

Departure

Time 2026-04-26 07:53
Airport Edinburgh Airport (EGPH)

Arrival

Time 2026-04-26 08:44
Airport Birmingham Airport (EGBB)
Time Latitude Longitude Altitude Speed Heading
2026-04-26 07:31 55.94809 -3.35751 117 ft 0 kts 208°
2026-04-26 07:46 55.94828 -3.35732 112 ft 4 kts 208°
2026-04-26 07:46 55.94852 -3.35708 113 ft 4 kts 214°
2026-04-26 07:47 55.94871 -3.35678 112 ft 4 kts 256°
2026-04-26 07:47 55.94870 -3.35656 112 ft 1 kts 298°
2026-04-26 07:47 55.94869 -3.35653 112 ft 0 kts 298°
2026-04-26 07:49 55.94888 -3.35713 116 ft 18 kts 298°
2026-04-26 07:50 55.95014 -3.35828 113 ft 8 kts 36°
2026-04-26 07:50 55.95063 -3.35786 114 ft 9 kts 24°
2026-04-26 07:50 55.95139 -3.35913 116 ft 21 kts 316°
2026-04-26 07:50 55.95242 -3.35963 115 ft 15 kts 44°
2026-04-26 07:51 55.95297 -3.35798 115 ft 16 kts 59°
2026-04-26 07:51 55.95358 -3.35615 116 ft 18 kts 59°
2026-04-26 07:51 55.95429 -3.35418 114 ft 19 kts 42°
2026-04-26 07:51 55.95528 -3.35472 115 ft 16 kts 329°
2026-04-26 07:52 55.95548 -3.35634 112 ft 16 kts 239°
2026-04-26 07:52 55.95460 -3.35895 111 ft 49 kts 238°
2026-04-26 07:52 55.95151 -3.36806 114 ft 118 kts 239°
2026-04-26 07:52 55.94630 -3.38341 206 ft 161 kts 239°
2026-04-26 07:53 55.94058 -3.40019 894 ft 157 kts 239°
2026-04-26 07:53 55.93486 -3.41674 1644 ft 157 kts 237°
2026-04-26 07:53 55.92897 -3.43368 2190 ft 169 kts 237°
2026-04-26 07:53 55.92240 -3.45264 2527 ft 191 kts 238°
2026-04-26 07:54 55.91494 -3.47416 2903 ft 216 kts 238°
2026-04-26 07:54 55.90680 -3.49849 3382 ft 241 kts 244°
2026-04-26 07:54 55.90242 -3.52829 4064 ft 255 kts 259°
2026-04-26 07:54 55.89939 -3.55971 5014 ft 259 kts 259°
2026-04-26 07:55 55.89629 -3.59119 5905 ft 263 kts 259°
2026-04-26 07:55 55.89310 -3.62344 6862 ft 266 kts 259°
2026-04-26 07:55 55.88986 -3.65592 7731 ft 268 kts 259°
2026-04-26 07:55 55.88653 -3.68881 8638 ft 270 kts 258°
2026-04-26 07:56 55.88316 -3.72179 9534 ft 272 kts 258°
2026-04-26 07:56 55.87978 -3.75502 10406 ft 275 kts 258°
2026-04-26 07:56 55.87623 -3.78990 10764 ft 297 kts 258°
2026-04-26 07:56 55.87250 -3.82720 11187 ft 312 kts 259°
2026-04-26 07:57 55.86873 -3.86554 11899 ft 317 kts 259°
2026-04-26 07:57 55.86489 -3.90453 12656 ft 322 kts 259°
2026-04-26 07:57 55.86098 -3.94402 13409 ft 326 kts 259°
2026-04-26 07:57 55.85695 -3.98396 14164 ft 330 kts 258°
2026-04-26 07:58 55.85287 -4.02435 14823 ft 333 kts 258°
2026-04-26 07:58 55.84874 -4.06509 15510 ft 336 kts 258°
2026-04-26 07:58 55.84326 -4.10540 16188 ft 337 kts 248°
2026-04-26 07:58 55.83158 -4.14158 16858 ft 340 kts 231°
2026-04-26 07:59 55.81402 -4.16983 17529 ft 344 kts 216°
2026-04-26 07:59 55.79416 -4.19391 18204 ft 346 kts 216°
2026-04-26 07:59 55.77423 -4.21817 18835 ft 349 kts 216°
2026-04-26 07:59 55.75377 -4.24162 19401 ft 353 kts 209°
2026-04-26 08:00 55.73063 -4.25699 19961 ft 360 kts 195°
2026-04-26 08:00 55.70544 -4.26137 20504 ft 369 kts 181°
2026-04-26 08:00 55.67994 -4.25366 21041 ft 378 kts 166°
2026-04-26 08:00 55.65559 -4.23461 21579 ft 386 kts 156°
2026-04-26 08:01 55.63175 -4.21220 22110 ft 390 kts 155°
2026-04-26 08:01 55.60790 -4.18858 22632 ft 394 kts 154°
2026-04-26 08:01 55.58394 -4.16438 23166 ft 398 kts 154°
2026-04-26 08:01 55.55982 -4.14010 23687 ft 402 kts 154°
2026-04-26 08:02 55.53531 -4.11570 24141 ft 405 kts 154°
2026-04-26 08:02 55.51060 -4.09138 24568 ft 408 kts 155°
2026-04-26 08:02 55.48567 -4.06706 24986 ft 411 kts 155°
2026-04-26 08:02 55.46052 -4.04265 25393 ft 414 kts 155°
2026-04-26 08:03 55.43522 -4.01816 25794 ft 416 kts 155°
2026-04-26 08:03 55.40975 -3.99358 26199 ft 419 kts 155°
2026-04-26 08:03 55.38408 -3.96884 26600 ft 422 kts 155°
2026-04-26 08:03 55.35826 -3.94390 26980 ft 425 kts 155°
2026-04-26 08:04 55.33231 -3.91883 27248 ft 427 kts 155°
2026-04-26 08:04 55.30645 -3.89387 27306 ft 417 kts 155°
2026-04-26 08:04 55.28145 -3.86974 27317 ft 404 kts 155°
2026-04-26 08:04 55.25725 -3.84649 27317 ft 401 kts 156°
2026-04-26 08:05 55.23282 -3.82309 27319 ft 400 kts 156°
2026-04-26 08:05 55.20834 -3.80006 27310 ft 399 kts 157°
2026-04-26 08:05 55.18364 -3.77812 27311 ft 398 kts 158°
2026-04-26 08:05 55.15878 -3.75689 27311 ft 398 kts 159°
2026-04-26 08:06 55.13383 -3.73597 27311 ft 398 kts 159°
2026-04-26 08:06 55.10889 -3.71505 27310 ft 398 kts 159°
2026-04-26 08:06 55.08395 -3.69400 27305 ft 398 kts 159°
2026-04-26 08:06 55.05911 -3.67288 27310 ft 398 kts 158°
2026-04-26 08:07 55.03421 -3.65167 27302 ft 398 kts 158°
2026-04-26 08:07 55.00932 -3.63047 27302 ft 398 kts 158°
2026-04-26 08:07 54.98445 -3.60928 27304 ft 398 kts 158°
2026-04-26 08:07 54.95959 -3.58811 27301 ft 398 kts 158°
2026-04-26 08:08 54.93465 -3.56688 27295 ft 398 kts 158°
2026-04-26 08:08 54.90978 -3.54571 27295 ft 398 kts 158°
2026-04-26 08:08 54.88490 -3.52457 27286 ft 399 kts 158°
2026-04-26 08:08 54.86001 -3.50350 27287 ft 399 kts 158°
2026-04-26 08:09 54.83498 -3.48234 27288 ft 399 kts 158°
2026-04-26 08:09 54.81007 -3.46127 27290 ft 399 kts 158°
2026-04-26 08:09 54.78508 -3.44020 27286 ft 399 kts 158°
2026-04-26 08:09 54.76011 -3.41917 27288 ft 399 kts 158°
2026-04-26 08:10 54.73512 -3.39818 27286 ft 399 kts 159°
2026-04-26 08:10 54.71014 -3.37721 27291 ft 399 kts 159°
2026-04-26 08:10 54.68510 -3.35621 27290 ft 399 kts 158°
2026-04-26 08:10 54.66013 -3.33528 27290 ft 399 kts 159°
2026-04-26 08:11 54.63543 -3.31461 27287 ft 399 kts 159°
2026-04-26 08:11 54.61043 -3.29371 27287 ft 400 kts 159°
2026-04-26 08:11 54.58539 -3.27284 27285 ft 399 kts 159°
2026-04-26 08:11 54.56040 -3.25205 27284 ft 399 kts 159°
2026-04-26 08:12 54.53541 -3.23130 27287 ft 399 kts 159°
2026-04-26 08:12 54.51040 -3.21055 27284 ft 399 kts 159°
2026-04-26 08:12 54.48540 -3.18981 27285 ft 398 kts 159°
2026-04-26 08:12 54.46045 -3.16911 27280 ft 398 kts 159°
2026-04-26 08:13 54.43551 -3.14846 27277 ft 398 kts 159°
2026-04-26 08:13 54.41051 -3.12783 27283 ft 399 kts 159°
2026-04-26 08:13 54.38550 -3.10722 27285 ft 399 kts 159°
2026-04-26 08:13 54.36045 -3.08660 27284 ft 400 kts 159°
2026-04-26 08:14 54.33539 -3.06600 27286 ft 400 kts 159°
2026-04-26 08:14 54.31026 -3.04541 27290 ft 400 kts 159°
2026-04-26 08:14 54.28511 -3.02480 27296 ft 400 kts 159°
2026-04-26 08:14 54.26007 -3.00425 27293 ft 400 kts 159°
2026-04-26 08:15 54.23529 -2.98391 27297 ft 400 kts 159°
2026-04-26 08:15 54.21023 -2.96336 27294 ft 400 kts 159°
2026-04-26 08:15 54.18481 -2.94253 27297 ft 400 kts 159°
2026-04-26 08:15 54.15974 -2.92230 27297 ft 399 kts 160°
2026-04-26 08:16 54.13435 -2.90305 27299 ft 398 kts 161°
2026-04-26 08:16 54.10879 -2.88453 27297 ft 398 kts 162°
2026-04-26 08:16 54.08353 -2.86660 27299 ft 398 kts 162°
2026-04-26 08:16 54.05796 -2.84850 27302 ft 398 kts 162°
2026-04-26 08:17 54.03234 -2.83027 27296 ft 398 kts 161°
2026-04-26 08:17 54.00689 -2.81200 27298 ft 398 kts 161°
2026-04-26 08:17 53.98139 -2.79359 27293 ft 398 kts 161°
2026-04-26 08:17 53.95587 -2.77511 27297 ft 398 kts 161°
2026-04-26 08:18 53.93039 -2.75667 27304 ft 399 kts 161°
2026-04-26 08:18 53.90478 -2.73812 27309 ft 399 kts 161°
2026-04-26 08:18 53.87929 -2.71968 27303 ft 399 kts 161°
2026-04-26 08:18 53.85373 -2.70124 27302 ft 399 kts 161°
2026-04-26 08:19 53.82818 -2.68283 27301 ft 399 kts 161°
2026-04-26 08:19 53.80265 -2.66449 27302 ft 399 kts 161°
2026-04-26 08:19 53.77712 -2.64617 27305 ft 399 kts 161°
2026-04-26 08:19 53.75153 -2.62784 27301 ft 399 kts 161°
2026-04-26 08:20 53.72595 -2.60955 27305 ft 399 kts 161°
2026-04-26 08:20 53.70044 -2.59130 27261 ft 397 kts 161°
2026-04-26 08:20 53.67526 -2.57328 26954 ft 391 kts 161°
2026-04-26 08:20 53.65026 -2.55541 26508 ft 388 kts 161°
2026-04-26 08:21 53.62555 -2.53690 26056 ft 388 kts 155°
2026-04-26 08:21 53.60233 -2.51366 25586 ft 388 kts 152°
2026-04-26 08:21 53.57958 -2.49021 25129 ft 387 kts 152°
2026-04-26 08:21 53.55664 -2.46657 24627 ft 386 kts 152°
2026-04-26 08:22 53.53376 -2.44300 24145 ft 386 kts 152°
2026-04-26 08:22 53.51084 -2.41945 23602 ft 385 kts 152°
2026-04-26 08:22 53.48803 -2.39606 23098 ft 383 kts 152°
2026-04-26 08:22 53.46541 -2.37285 22618 ft 380 kts 152°
2026-04-26 08:23 53.44285 -2.34976 22131 ft 378 kts 152°
2026-04-26 08:23 53.42045 -2.32694 21666 ft 376 kts 152°
2026-04-26 08:23 53.39818 -2.30432 21203 ft 373 kts 152°
2026-04-26 08:23 53.37611 -2.28194 20776 ft 370 kts 152°
2026-04-26 08:24 53.35420 -2.25971 20405 ft 365 kts 152°
2026-04-26 08:24 53.33231 -2.23831 19950 ft 363 kts 153°
2026-04-26 08:24 53.31781 -2.22468 19728 ft 359 kts 154°
2026-04-26 08:24 53.29593 -2.20461 19295 ft 357 kts 154°
2026-04-26 08:25 53.27420 -2.18499 18930 ft 353 kts 154°
2026-04-26 08:25 53.25266 -2.16556 18568 ft 350 kts 154°
2026-04-26 08:25 53.23140 -2.14620 18184 ft 346 kts 154°
2026-04-26 08:25 53.21048 -2.12700 17832 ft 341 kts 153°
2026-04-26 08:26 53.18977 -2.10795 17480 ft 338 kts 153°
2026-04-26 08:26 53.16936 -2.08915 17146 ft 334 kts 153°
2026-04-26 08:26 53.14914 -2.07057 16808 ft 330 kts 153°
2026-04-26 08:26 53.12915 -2.05222 16469 ft 327 kts 153°
2026-04-26 08:27 53.10934 -2.03406 16137 ft 324 kts 153°
2026-04-26 08:27 53.08973 -2.01612 15820 ft 321 kts 153°
2026-04-26 08:27 53.07025 -1.99831 15495 ft 318 kts 153°
2026-04-26 08:27 53.05070 -1.98153 15177 ft 314 kts 160°
2026-04-26 08:28 53.02989 -1.97184 14855 ft 309 kts 174°
2026-04-26 08:28 53.00862 -1.96869 14549 ft 305 kts 178°
2026-04-26 08:28 52.98753 -1.96601 14237 ft 303 kts 177°
2026-04-26 08:28 52.96655 -1.96329 13903 ft 301 kts 177°
2026-04-26 08:29 52.94568 -1.96056 13586 ft 300 kts 177°
2026-04-26 08:29 52.92497 -1.95782 13282 ft 298 kts 177°
2026-04-26 08:29 52.90433 -1.95510 12979 ft 297 kts 177°
2026-04-26 08:29 52.88381 -1.95241 12677 ft 295 kts 177°
2026-04-26 08:30 52.86339 -1.94973 12378 ft 294 kts 177°
2026-04-26 08:30 52.84298 -1.94706 12079 ft 293 kts 177°
2026-04-26 08:30 52.82294 -1.94444 11784 ft 292 kts 177°
2026-04-26 08:30 52.80273 -1.94181 11487 ft 291 kts 177°
2026-04-26 08:31 52.78253 -1.93921 11187 ft 290 kts 177°
2026-04-26 08:31 52.76241 -1.93661 10891 ft 290 kts 177°
2026-04-26 08:31 52.74234 -1.93403 10601 ft 289 kts 177°
2026-04-26 08:31 52.72237 -1.93143 10302 ft 287 kts 176°
2026-04-26 08:32 52.70246 -1.92882 9992 ft 286 kts 176°
2026-04-26 08:32 52.68273 -1.92625 9739 ft 282 kts 176°
2026-04-26 08:32 52.66359 -1.92373 9654 ft 269 kts 176°
2026-04-26 08:32 52.64532 -1.92132 9544 ft 258 kts 176°
2026-04-26 08:33 52.62787 -1.91903 9432 ft 247 kts 176°
2026-04-26 08:33 52.61118 -1.91465 9329 ft 239 kts 163°
2026-04-26 08:33 52.59583 -1.90396 8874 ft 243 kts 156°
2026-04-26 08:33 52.58085 -1.89059 8206 ft 248 kts 147°
2026-04-26 08:34 52.56654 -1.87421 7550 ft 252 kts 145°
2026-04-26 08:34 52.55231 -1.85792 6896 ft 245 kts 146°
2026-04-26 08:34 52.53849 -1.84242 6241 ft 236 kts 146°
2026-04-26 08:34 52.52514 -1.82751 5609 ft 228 kts 147°
2026-04-26 08:35 52.51226 -1.81313 5007 ft 220 kts 147°
2026-04-26 08:35 52.49981 -1.79924 4404 ft 213 kts 147°
2026-04-26 08:35 52.48753 -1.78556 3831 ft 215 kts 147°
2026-04-26 08:35 52.47483 -1.77251 3252 ft 216 kts 159°
2026-04-26 08:36 52.46050 -1.76479 2561 ft 225 kts 165°
2026-04-26 08:36 52.44476 -1.75819 1835 ft 239 kts 166°
2026-04-26 08:36 52.42859 -1.75178 1464 ft 238 kts 166°
2026-04-26 08:36 52.41247 -1.74567 1041 ft 238 kts 166°
2026-04-26 08:37 52.39640 -1.74006 916 ft 221 kts 167°
2026-04-26 08:37 52.38235 -1.73541 1578 ft 197 kts 167°
2026-04-26 08:37 52.36871 -1.73059 2345 ft 215 kts 167°
2026-04-26 08:37 52.35303 -1.72523 2482 ft 241 kts 176°
2026-04-26 08:38 52.33622 -1.73004 2504 ft 248 kts 205°
2026-04-26 08:38 52.32336 -1.74802 2509 ft 251 kts 235°
2026-04-26 08:38 52.31778 -1.77494 2509 ft 256 kts 266°
2026-04-26 08:38 52.32164 -1.80315 2511 ft 260 kts 298°
2026-04-26 08:39 52.33434 -1.82413 2509 ft 265 kts 331°
2026-04-26 08:39 52.35202 -1.83245 2515 ft 267 kts 350°
2026-04-26 08:39 52.37036 -1.83747 2511 ft 267 kts 351°
2026-04-26 08:39 52.38872 -1.84237 2510 ft 267 kts 351°
2026-04-26 08:40 52.40704 -1.84726 2510 ft 267 kts 350°
2026-04-26 08:40 52.42544 -1.85222 2509 ft 267 kts 350°
2026-04-26 08:40 52.44375 -1.85723 2511 ft 267 kts 350°
2026-04-26 08:40 52.46212 -1.86230 2510 ft 268 kts 350°
2026-04-26 08:41 52.48049 -1.86740 2510 ft 268 kts 350°
2026-04-26 08:41 52.49854 -1.87053 2499 ft 252 kts
2026-04-26 08:41 52.51402 -1.85990 2205 ft 241 kts 45°
2026-04-26 08:41 52.52156 -1.83745 1772 ft 214 kts 89°
2026-04-26 08:42 52.51787 -1.81661 1642 ft 179 kts 135°
2026-04-26 08:42 52.50791 -1.80731 1437 ft 156 kts 160°
2026-04-26 08:42 52.49881 -1.79930 1237 ft 144 kts 143°
2026-04-26 08:42 52.49097 -1.78969 986 ft 138 kts 143°
2026-04-26 08:43 52.48313 -1.78076 837 ft 137 kts 144°
2026-04-26 08:43 52.47518 -1.77186 639 ft 139 kts 144°
2026-04-26 08:43 52.46726 -1.76296 459 ft 138 kts 144°
2026-04-26 08:43 52.45940 -1.75415 319 ft 130 kts 144°
2026-04-26 08:44 52.45320 -1.74727 325 ft 83 kts 146°
2026-04-26 08:44 52.44977 -1.74348 326 ft 36 kts 146°
2026-04-26 08:44 52.44953 -1.74201 325 ft 14 kts 73°
2026-04-26 08:44 52.44978 -1.74037 325 ft 9 kts 76°
2026-04-26 08:45 52.44996 -1.73918 323 ft 12 kts 74°
2026-04-26 08:45 52.45049 -1.73799 323 ft 10 kts 55°
2026-04-26 08:45 52.45089 -1.73728 323 ft 9 kts 28°
2026-04-26 08:45 52.45124 -1.73663 323 ft 8 kts 57°
2026-04-26 08:46 52.45153 -1.73592 323 ft 7 kts 55°
2026-04-26 08:46 52.45179 -1.73530 323 ft 6 kts 56°
2026-04-26 08:46 52.45199 -1.73483 323 ft 3 kts 56°
2026-04-26 08:46 52.45208 -1.73447 323 ft 6 kts 90°
2026-04-26 08:47 52.45181 -1.73404 323 ft 3 kts 146°
2026-04-26 08:47 52.45164 -1.73381 323 ft 1 kts 140°
2026-04-26 08:47 52.45163 -1.73379 323 ft 0 kts 140°